Regional Weather Roundup
Issued by NWS

Home | Current Version | Previous Version | Text Only | Print | Product List | Glossary On
Versions: 1 2 3 4 5 6 7 8 9 10 11 12 13 14 15 16 17 18 19 20 21 22 23 24 25 26 27 28 29 30 31 32 33 34 35 36 37 38 39 40 41 42 43 44 45 46 47 48 49 50
000
ASUS42 KFFC 171710
RWRGA
WEATHER ROUNDUP FOR GEORGIA
NATIONAL WEATHER SERVICE PEACHTREE CITY GA
100 PM EDT THU AUG 17 2017

NOTE: "FAIR" INDICATES FEW OR NO CLOUDS BELOW 12,000 FEET WITH NO
SIGNIFICANT WEATHER AND/OR OBSTRUCTIONS TO VISIBILITY.

* = USE WITH CAUTION. THE STATIONS MARKED WITH AN ASTERISK MAY NOT
REPORT WEATHER SUCH AS PRECIPITATION, FOG, OR THUNDER AND ARE NOT
QUALITY CONTROLLED BY NWS.

THE REMARK "TC" DENOTES TEMPERATURE READING IN DEGREES CELSIUS.

GAZ001>058-171800-
NORTH GEORGIA

CITY           SKY/WX    TMP DP  RH WIND       PRES   REMARKS
ATLANTA        PTSUNNY   87  73  62 W9        30.09F HX  94
ATHENS         MOSUNNY   88  74  63 VRB6      30.07F HX  96
PEACHTREE CITY MOSUNNY   89  74  60 W7        30.09F HX  98
ROME           PTSUNNY   88  74  63 W10       30.08S HX  96
WEST ATLANTA   PTSUNNY   87  74  64 W8        30.08F HX  95
GAINESVILLE    MOSUNNY   86  72  62 W10       30.11F HX  92
CARTERSVILLE   MOSUNNY   88  73  61 NW3       30.09F HX  95


CITY           SKY/WX    TMP DP  RH WIND       PRES   REMARKS
LAWRENCEVILLE* MOSUNNY   86  73  66 W9        30.10F HX  93
MARIETTA       PTSUNNY   81  73  78 W1        30.09F
KENNESAW*      PTSUNNY   87  73  62 W10       30.10F HX  94
CANTON*        MOSUNNY   88  73  62 W6        30.12F HX  96
$$

GAZ059>098-102>109-171800-
CENTRAL GEORGIA

CITY           SKY/WX    TMP DP  RH WIND       PRES   REMARKS
AUGUSTA-BUSH   PTSUNNY   95  76  53 SW7       30.02F HX 108
AUGUSTA-DANIEL PTSUNNY   93  72  50 NW9       30.05F HX 101
COLUMBUS       SUNNY     92  68  45 N14       30.09F HX  96
MACON          PTSUNNY   90  73  58 W9        30.07F HX  98
ROBINS AFB     MOSUNNY   89  76  63 W6        30.06F HX 100


CITY           SKY/WX    TMP DP  RH WIND       PRES   REMARKS
LAGRANGE*      MOSUNNY   90  74  59 NW8       30.10F HX  99
SYLVANIA*      LGT RAIN  84  80  88 CALM      30.07S HX  97
MILLEDGEVILLE* MOSUNNY   91  75  59 CALM      30.06F HX 102
$$

GAZ099>101-110>166-171800-
SOUTH GEORGIA

CITY           SKY/WX    TMP DP  RH WIND       PRES   REMARKS
SAVANNAH       MOSUNNY   95  75  52 NW6       30.04F HX 107
VALDOSTA       PTSUNNY   91  75  59 VRB3      30.07F HX 101
ALMA           SUNNY     94  74  52 VRB7      30.06F HX 104
ST SIMONS      PTSUNNY   91  76  61 W5        30.05F HX 103
FT STEWART     PTSUNNY   94  73  50 NW8       30.03F HX 103
ALBANY         MOSUNNY   93  74  53 VRB7      30.09F HX 103
HUNTER AFB     MOSUNNY   93  76  58 NW5       30.02F HX 106
MOODY AFB      MOSUNNY   90  75  60 N7        30.06F HX 100
BRUNSWICK      PTSUNNY   90  72  55 W9G16     30.06F HX  96


CITY           SKY/WX    TMP DP  RH WIND       PRES   REMARKS
BAINBRIDGE*    SUNNY     91  79  66 NW7       30.09F HX 107
MOULTRIE*      SUNNY     91  73  55 NW7       30.09F HX 100
VIDALIA*       PTSUNNY   91  75  59 NW8       30.07F HX 102
WAYCROSS*      PTSUNNY   93  70  46 NW3       30.06F HX  99
DOUGLAS*       MOSUNNY   90  73  58 NW9       30.08F HX  98
$$



USA.gov is the U.S. government's official web portal to all federal, state and local government web resources and services.